TimeEST,TemperatureF,Dew PointF,Humidity,Sea Level PressureIn,VisibilityMPH,Wind Direction,Wind SpeedMPH,Gust SpeedMPH,PrecipitationIn,Events,Conditions,WindDirDegrees,DateUTC
12:54 AM,45.0,36.0,71,30.29,10.0,North,9.2,-,N/A,,Clear,360,2013-11-20 05:54:00
1:54 AM,43.0,34.0,71,30.30,10.0,NNW,6.9,-,N/A,,Clear,340,2013-11-20 06:54:00
2:54 AM,43.0,34.0,71,30.31,10.0,NNE,11.5,-,N/A,,Clear,20,2013-11-20 07:54:00
3:54 AM,43.0,34.0,71,30.29,10.0,NNE,11.5,-,N/A,,Clear,20,2013-11-20 08:54:00
4:54 AM,43.0,34.0,71,30.32,10.0,NNE,12.7,-,N/A,,Clear,20,2013-11-20 09:54:00
5:54 AM,43.0,35.1,74,30.30,10.0,NNE,13.8,-,N/A,,Partly Cloudy,30,2013-11-20 10:54:00
6:54 AM,44.1,35.1,71,30.35,10.0,North,10.4,-,N/A,,Clear,10,2013-11-20 11:54:00
7:54 AM,45.0,35.1,68,30.36,10.0,North,11.5,-,N/A,,Scattered Clouds,10,2013-11-20 12:54:00
8:54 AM,48.9,37.9,66,30.38,10.0,NE,11.5,-,N/A,,Partly Cloudy,40,2013-11-20 13:54:00
9:54 AM,51.1,39.9,66,30.40,10.0,NE,16.1,20.7,N/A,,Mostly Cloudy,40,2013-11-20 14:54:00
10:54 AM,54.0,41.0,62,30.40,10.0,NNE,12.7,-,N/A,,Overcast,20,2013-11-20 15:54:00
11:54 AM,55.0,42.1,62,30.37,10.0,North,10.4,-,N/A,,Overcast,360,2013-11-20 16:54:00
12:54 PM,60.1,44.1,55,30.37,10.0,North,13.8,20.7,N/A,,Mostly Cloudy,10,2013-11-20 17:54:00
1:54 PM,57.9,43.0,58,30.36,10.0,NE,15.0,-,N/A,,Overcast,40,2013-11-20 18:54:00
2:54 PM,57.9,43.0,58,30.36,10.0,NE,11.5,-,N/A,,Overcast,40,2013-11-20 19:54:00
3:54 PM,57.0,44.1,62,30.38,10.0,NE,11.5,-,N/A,,Mostly Cloudy,50,2013-11-20 20:54:00
4:54 PM,55.0,43.0,64,30.39,10.0,NE,16.1,21.9,N/A,,Overcast,40,2013-11-20 21:54:00
5:54 PM,53.1,44.1,71,30.39,10.0,NE,10.4,-,N/A,,Overcast,40,2013-11-20 22:54:00
6:54 PM,53.1,43.0,69,30.40,10.0,NE,11.5,21.9,N/A,,Overcast,40,2013-11-20 23:54:00
7:54 PM,51.1,43.0,74,30.41,10.0,NNE,12.7,19.6,N/A,,Scattered Clouds,30,2013-11-21 00:54:00
8:54 PM,50.0,43.0,77,30.41,10.0,NNE,9.2,-,N/A,,Clear,30,2013-11-21 01:54:00
9:54 PM,50.0,43.0,77,30.41,10.0,NE,8.1,-,N/A,,Clear,40,2013-11-21 02:54:00
10:54 PM,50.0,44.1,80,30.42,10.0,NNE,6.9,-,N/A,,Mostly Cloudy,20,2013-11-21 03:54:00
11:54 PM,51.1,44.1,77,30.41,10.0,NNE,10.4,-,N/A,,Overcast,30,2013-11-21 04:54:00